DW7251 Weather Reports


Display with metric or nautical units.
time (UTC)temp
F
wind
direction
speed
MPH
gust
MPH
rain 1hr
in
rain 24hr
in
rain mn
in
humidity
%
barometer
mb
20260510212859 45 39 0.0 2.0 0.00 0.00 0.00 93 1032.6
20260510211725 45 45 0.0 2.0 0.00 0.00 0.00 93 1032.6
20260510211217 45 27 0.0 2.0 0.00 0.00 0.00 93 1032.5
20260510210658 45 56 0.0 2.0 0.00 0.00 0.00 93 1032.5
20260510210203 45 39 0.0 1.0 0.00 0.00 0.00 92 1032.4
20260510205707 45 48 0.0 1.0 0.00 0.00 0.00 92 1032.4
20260510205201 45 47 0.0 1.0 0.00 0.00 0.00 92 1032.3
20260510204033 45 22 0.0 1.0 0.00 0.00 0.00 92 1032.3
20260510203528 45 42 0.0 1.0 0.00 0.00 0.00 92 1032.2
20260510203034 45 51 0.0 1.0 0.00 0.00 0.00 92 1032.0
20260510202517 45 41 0.0 1.0 0.00 0.00 0.00 92 1032.1
20260510202002 45 24 0.0 1.0 0.00 0.00 0.00 92 1032.1
20260510201453 45 29 0.0 0.0 0.00 0.00 0.00 92 1032.1
20260510200946 45 39 0.0 0.0 0.00 0.00 0.00 92 1031.9
20260510200449 45 47 0.0 0.0 0.00 0.00 0.00 92 1031.9
20260510195937 45 35 0.0 0.0 0.00 0.00 0.00 92 1031.9
20260510195440 45 50 0.0 0.0 0.00 0.00 0.00 92 1031.9
20260510194927 45 56 0.0 1.0 0.00 0.00 0.00 92 1031.8
20260510194430 45 27 0.0 1.0 0.00 0.00 0.00 92 1031.8
20260510193930 45 39 0.0 0.0 0.00 0.00 0.00 92 1031.7
20260510191525 46 37 0.0 0.0 0.00 0.00 0.00 92 1031.5
20260510191008 46 26 0.0 1.0 0.00 0.00 0.00 92 1031.5
20260510185827 46 17 0.0 0.0 0.00 0.00 0.00 92 1031.4
20260510185312 46 33 0.0 0.0 0.00 0.00 0.00 92 1031.3
20260510184758 46 33 0.0 0.0 0.00 0.00 0.00 92 1031.3
20260510184300 46 33 0.0 0.0 0.00 0.00 0.00 92 1031.3
20260510183759 46 33 0.0 0.0 0.00 0.00 0.00 92 1031.3
20260510183301 46 44 0.0 0.0 0.00 0.00 0.00 92 1031.2
20260510182755 46 18 0.0 0.0 0.00 0.00 0.00 92 1031.1
20260510182238 46 2 0.0 0.0 0.00 0.00 0.00 92 1031.1
20260510181726 46 37 0.0 0.0 0.00 0.00 0.00 92 1031.0
20260510181221 47 37 0.0 0.0 0.00 0.00 0.00 92 1031.0
20260510180713 47 40 0.0 0.0 0.00 0.00 0.00 92 1031.0
20260510180158 47 39 0.0 0.0 0.00 0.00 0.00 92 1031.0
20260510175641 47 39 0.0 0.0 0.00 0.00 0.00 92 1030.9
20260510175139 47 39 0.0 0.0 0.00 0.00 0.00 91 1030.8
20260510174640 47 39 0.0 0.0 0.00 0.00 0.00 92 1030.8
20260510174129 47 39 0.0 0.0 0.00 0.00 0.00 92 1030.8
20260510173633 47 38 0.0 0.0 0.00 0.00 0.00 92 1030.9
20260510173122 47 48 0.0 0.0 0.00 0.00 0.00 92 1030.9
20260510170719 48 35 0.0 0.0 0.00 0.00 0.00 92 1030.8
20260510170221 48 38 0.0 0.0 0.00 0.00 0.00 92 1030.8
20260510165710 48 40 0.0 0.0 0.00 0.00 0.00 92 1030.8
20260510165153 48 41 0.0 0.0 0.00 0.00 0.00 92 1030.8
20260510164651 47 42 0.0 0.0 0.00 0.00 0.00 92 1030.8
20260510163509 47 43 0.0 0.0 0.00 0.00 0.00 91 1030.9
20260510163001 48 42 0.0 0.0 0.00 0.00 0.00 91 1031.1
20260510161835 48 42 0.0 0.0 0.00 0.00 0.00 91 1031.0
20260510161345 48 43 0.0 0.0 0.00 0.00 0.00 91 1031.0
20260510160828 48 42 0.0 0.0 0.00 0.00 0.00 91 1031.0
20260510160331 49 42 0.0 0.0 0.00 0.00 0.00 91 1031.1
20260510155823 49 42 0.0 0.0 0.00 0.00 0.00 91 1031.1
20260510154641 48 43 0.0 0.0 0.00 0.00 0.00 91 1031.0
20260510154138 48 43 0.0 0.0 0.00 0.00 0.00 91 1031.0
20260510153624 48 43 0.0 0.0 0.00 0.00 0.00 91 1031.0
20260510153113 49 42 0.0 0.0 0.00 0.00 0.00 91 1031.0
20260510152622 49 43 0.0 0.0 0.00 0.00 0.00 91 1031.0
20260510152119 49 43 0.0 0.0 0.00 0.00 0.00 91 1031.0
20260510151621 48 43 0.0 0.0 0.00 0.00 0.00 91 1031.0
20260510151130 48 43 0.0 0.0 0.00 0.00 0.00 91 1031.0
20260510150633 48 43 0.0 0.0 0.00 0.00 0.00 91 1031.0
20260510150127 49 43 0.0 0.0 0.00 0.00 0.00 91 1031.0
20260510145619 49 42 0.0 0.0 0.00 0.00 0.00 91 1031.1
20260510145106 49 43 0.0 0.0 0.00 0.00 0.00 91 1031.0
20260510143930 49 42 0.0 0.0 0.00 0.00 0.00 90 1031.0
20260510142115 50 43 0.0 0.0 0.00 0.00 0.00 90 1031.1
20260510140934 51 43 0.0 0.0 0.00 0.00 0.00 90 1031.0
20260510140441 51 43 0.0 0.0 0.00 0.00 0.00 90 1031.0
20260510135941 51 42 0.0 0.0 0.00 0.00 0.00 90 1031.1
20260510134815 52 43 0.0 0.0 0.00 0.00 0.00 90 1031.0
20260510134320 52 43 0.0 0.0 0.00 0.00 0.00 90 1031.1
20260510133814 52 43 0.0 0.0 0.00 0.00 0.00 90 1031.1
20260510133315 52 43 0.0 0.0 0.00 0.00 0.00 90 1031.2
20260510132812 52 54 0.0 0.0 0.00 0.00 0.00 90 1031.1
20260510132255 52 54 0.0 0.0 0.00 0.00 0.00 90 1031.2
20260510131755 52 54 0.0 0.0 0.00 0.00 0.00 90 1031.2
20260510131253 52 54 0.0 0.0 0.00 0.00 0.00 89 1031.2
20260510130737 52 54 0.0 0.0 0.00 0.00 0.00 89 1031.2
20260510130247 52 54 0.0 0.0 0.00 0.00 0.00 89 1031.2
20260510125746 52 60 0.0 0.0 0.00 0.00 0.00 89 1031.3
20260510125246 53 59 0.0 0.0 0.00 0.00 0.00 89 1031.4
20260510124726 53 60 0.0 0.0 0.00 0.00 0.00 89 1031.4
20260510124229 53 60 0.0 0.0 0.00 0.00 0.00 89 1031.4
20260510123733 53 63 0.0 0.0 0.00 0.00 0.00 89 1031.4
20260510123233 53 42 0.0 0.0 0.00 0.00 0.00 89 1031.4
20260510122736 53 39 0.0 0.0 0.00 0.00 0.00 89 1031.4
20260510122238 53 25 0.0 0.0 0.00 0.00 0.00 89 1031.5
20260510121746 53 17 0.0 0.0 0.00 0.00 0.00 89 1031.5
20260510120555 53 349 0.0 0.0 0.00 0.00 0.00 89 1031.5
20260510120050 53 348 0.0 0.0 0.00 0.00 0.00 89 1031.4
20260510115557 53 134 0.0 0.0 0.00 0.00 0.00 88 1031.4
20260510115049 53 134 0.0 0.0 0.00 0.00 0.00 88 1031.4
20260510113903 54 134 0.0 0.0 0.00 0.00 0.00 88 1031.2
20260510112739 54 134 0.0 0.0 0.00 0.00 0.00 87 1031.2
20260510112238 55 134 0.0 0.0 0.00 0.00 0.00 87 1031.1
20260510111731 55 134 0.0 0.0 0.00 0.00 0.00 88 1031.1
20260510111221 55 134 0.0 0.0 0.00 0.00 0.00 87 1030.9
20260510110720 56 134 0.0 0.0 0.00 0.00 0.00 88 1030.9
20260510110207 56 134 0.0 0.0 0.00 0.00 0.00 87 1030.9
20260510105709 56 134 0.0 0.0 0.00 0.00 0.00 87 1030.9
20260510104637 56 134 0.0 0.0 0.00 0.00 0.00 87 1030.8
20260510104130 56 134 0.0 0.0 0.00 0.00 0.00 87 1030.9
20260510103629 56 134 0.0 0.0 0.00 0.00 0.00 87 1030.9
20260510103117 57 134 0.0 0.0 0.00 0.00 0.00 87 1030.9
20260510102614 57 134 0.0 0.0 0.00 0.00 0.00 86 1030.9
20260510102111 57 134 0.0 0.0 0.00 0.00 0.00 86 1030.8
20260510101601 57 134 0.0 0.0 0.00 0.00 0.00 86 1030.8
20260510101043 57 134 0.0 0.0 0.00 0.00 0.00 86 1030.8
20260510100542 57 141 0.0 0.0 0.00 0.00 0.00 86 1030.8
20260510100038 58 141 0.0 1.0 0.00 0.00 0.00 86 1030.7
20260510095530 58 145 0.0 1.0 0.00 0.00 0.00 86 1030.7
20260510095010 58 135 0.0 0.0 0.00 0.00 0.00 85 1030.7
20260510094459 58 213 0.0 0.0 0.00 0.00 0.00 85 1030.7
20260510093947 58 117 0.0 1.0 0.00 0.00 0.00 85 1030.7
20260510093433 58 136 0.0 3.0 0.00 0.00 0.00 85 1030.8
20260510092919 58 115 0.0 1.0 0.00 0.00 0.00 85 1030.7
20260510092418 58 237 0.0 0.0 0.00 0.00 0.00 84 1030.6
20260510091912 59 133 0.0 1.0 0.00 0.00 0.00 84 1030.6
20260510091413 59 122 0.0 0.0 0.00 0.00 0.00 84 1030.6
20260510090911 59 138 0.0 2.0 0.00 0.00 0.00 84 1030.5
20260510085743 59 143 0.0 0.0 0.00 0.00 0.00 83 1030.5
20260510085228 59 127 0.0 0.0 0.00 0.00 0.00 83 1030.5
20260510084726 59 134 0.0 0.0 0.00 0.00 0.00 83 1030.5
20260510083551 59 138 0.0 0.0 0.00 0.00 0.00 82 1030.3
20260510083043 59 163 0.0 3.0 0.00 0.00 0.00 82 1030.3
20260510082537 60 133 0.0 3.0 0.00 0.00 0.00 81 1030.2
20260510082034 60 218 0.0 3.0 0.00 0.00 0.00 81 1030.2
20260510081525 60 164 1.0 3.0 0.00 0.00 0.00 80 1030.1
20260510081011 60 164 1.0 3.0 0.00 0.00 0.00 80 1030.1
20260510075854 60 145 0.0 3.0 0.00 0.00 0.00 79 1029.9
20260510075335 60 146 0.0 2.0 0.00 0.00 0.00 78 1029.8
20260510074834 60 182 0.0 2.0 0.00 0.00 0.00 78 1029.8
20260510074322 60 215 0.0 2.0 0.00 0.00 0.00 78 1029.8
20260510073820 60 151 0.0 1.0 0.00 0.00 0.00 77 1029.7
20260510073302 60 165 0.0 4.0 0.00 0.00 0.00 77 1029.7
20260510072746 60 146 0.0 4.0 0.00 0.00 0.00 77 1029.7
20260510072242 60 156 0.0 4.0 0.00 0.00 0.00 76 1029.7
20260510071752 60 218 0.0 4.0 0.00 0.00 0.00 76 1029.7
20260510070625 60 167 0.0 3.0 0.00 0.00 0.00 75 1029.6
20260510065436 60 156 0.0 2.0 0.00 0.00 0.00 74 1029.5
20260510064928 61 181 0.0 2.0 0.00 0.00 0.00 74 1029.5
20260510064421 61 151 0.0 2.0 0.00 0.00 0.00 73 1029.5
20260510063927 61 128 0.0 2.0 0.00 0.00 0.00 73 1029.4
20260510063419 62 134 0.0 0.0 0.00 0.00 0.00 73 1029.5
20260510062914 62 146 0.0 2.0 0.00 0.00 0.00 73 1029.4
20260510062358 63 231 0.0 1.0 0.00 0.00 0.00 72 1029.4
20260510061857 63 277 0.0 1.0 0.00 0.00 0.00 72 1029.4
20260510061404 63 277 0.0 1.0 0.00 0.00 0.00 72 1029.4
20260510060902 63 319 0.0 1.0 0.00 0.00 0.00 72 1029.4
20260510060400 63 269 0.0 0.0 0.00 0.00 0.00 72 1029.4
20260510055857 63 269 0.0 0.0 0.00 0.00 0.00 72 1029.4
20260510054729 64 307 0.0 2.0 0.00 0.00 0.00 71 1029.4
20260510054212 64 280 0.0 2.0 0.00 0.00 0.00 70 1029.4
20260510053714 65 306 0.0 1.0 0.00 0.00 0.00 69 1029.3
20260510053214 65 318 0.0 0.0 0.00 0.00 0.00 70 1029.3
20260510052709 65 347 0.0 2.0 0.00 0.00 0.00 70 1029.3
20260510052152 65 315 0.0 0.0 0.00 0.00 0.00 70 1029.3
20260510051656 64 281 0.0 2.0 0.00 0.00 0.00 70 1029.3
20260510051138 64 269 0.0 2.0 0.00 0.00 0.00 71 1029.2
20260510050640 64 274 0.0 2.0 0.00 0.00 0.00 71 1029.2
20260510050122 64 280 0.0 2.0 0.00 0.00 0.00 71 1029.2
20260510045602 64 302 0.0 0.0 0.00 0.00 0.00 71 1029.2
20260510043803 62 278 0.0 0.0 0.00 0.00 0.00 73 1029.2
20260510042036 63 276 0.0 0.0 0.00 0.00 0.00 71 1029.3
20260510041538 63 282 0.0 0.0 0.00 0.00 0.00 70 1029.2
20260510041019 63 224 0.0 0.0 0.00 0.00 0.00 71 1029.4
20260510035900 63 224 0.0 0.0 0.00 0.00 0.00 68 1029.4
20260510035400 63 224 0.0 0.0 0.00 0.00 0.00 68 1029.5
20260510034907 63 224 0.0 1.0 0.00 0.00 0.00 69 1029.5
20260510034412 63 227 0.0 0.0 0.00 0.00 0.00 69 1029.5
20260510033857 63 247 0.0 0.0 0.00 0.00 0.00 69 1029.5
20260510032702 62 175 0.0 3.0 0.00 0.00 0.00 68 1029.5
20260510031517 62 278 0.0 3.0 0.00 0.00 0.00 68 1029.5
20260510031027 62 182 0.0 3.0 0.00 0.00 0.00 67 1029.6
20260510030519 62 224 0.0 3.0 0.00 0.00 0.00 68 1029.6
20260510030013 62 229 0.0 3.0 0.00 0.00 0.00 67 1029.6
20260510025502 62 139 0.0 1.0 0.00 0.00 0.00 68 1029.7
20260510025001 62 130 0.0 0.0 0.00 0.00 0.00 69 1029.7
20260510023842 62 187 0.0 1.0 0.00 0.00 0.00 72 1030.0
20260510023343 62 187 0.0 1.0 0.00 0.00 0.00 72 1030.0
20260510022826 62 158 0.0 3.0 0.00 0.00 0.00 72 1030.1
20260510022322 61 198 0.0 2.0 0.00 0.00 0.00 72 1030.1
20260510021819 61 271 0.0 2.0 0.00 0.00 0.00 72 1030.1
20260510021309 61 137 0.0 1.0 0.00 0.00 0.00 73 1030.2
20260510020819 61 317 0.0 0.0 0.00 0.00 0.00 73 1030.3
20260510020307 61 115 0.0 3.0 0.00 0.00 0.00 73 1030.3
20260510015804 61 142 0.0 3.0 0.00 0.00 0.00 74 1030.4
20260510015244 61 129 0.0 3.0 0.00 0.00 0.00 75 1030.5
20260510014745 61 204 1.0 4.0 0.00 0.00 0.00 74 1030.5
20260510014242 60 231 1.0 4.0 0.00 0.00 0.00 74 1030.6
20260510013746 60 161 1.0 4.0 0.00 0.00 0.00 74 1030.7
20260510013251 61 140 0.0 4.0 0.00 0.00 0.00 75 1030.7
20260510011426 60 147 0.0 4.0 0.00 0.00 0.00 75 1030.8
20260510010923 60 222 0.0 3.0 0.00 0.00 0.00 76 1030.7
20260510010407 60 256 0.0 3.0 0.00 0.00 0.00 76 1030.7
20260510005218 60 150 0.0 3.0 0.00 0.00 0.00 77 1030.6
20260510002759 60 189 0.0 1.0 0.00 0.00 0.00 80 1030.7
20260510002306 60 278 0.0 0.0 0.00 0.00 0.00 80 1030.8
20260510001808 60 269 0.0 3.0 0.00 0.00 0.00 80 1030.7
20260510001253 61 281 0.0 3.0 0.00 0.00 0.00 79 1030.6
20260510000744 61 270 0.0 3.0 0.00 0.00 0.00 79 1030.7
20260510000226 61 303 0.0 3.0 0.00 0.00 0.00 79 1030.6
20260509235707 61 312 0.0 0.0 0.00 0.00 0.00 78 1030.6
20260509235159 61 268 0.0 0.0 0.00 0.00 0.00 78 1030.6
20260509234653 61 268 0.0 0.0 0.00 0.00 0.00 77 1030.6
20260509234201 61 268 0.0 0.0 0.00 0.00 0.00 77 1030.6
20260509233705 60 224 0.0 0.0 0.00 0.00 0.00 76 1030.6
20260509233158 60 212 0.0 0.0 0.00 0.00 0.00 76 1030.6
20260509232647 60 212 0.0 0.0 0.00 0.00 0.00 75 1030.6
20260509232131 60 212 0.0 0.0 0.00 0.00 0.00 75 1030.5
20260509231640 60 212 0.0 0.0 0.00 0.00 0.00 76 1030.5
20260509231135 60 212 0.0 0.0 0.00 0.00 0.00 76 1030.5
20260509230624 59 212 0.0 0.0 0.00 0.00 0.00 76 1030.5
20260509230110 59 212 0.0 0.0 0.00 0.00 0.00 76 1030.5
20260509225607 59 212 0.0 0.0 0.00 0.00 0.00 75 1030.5
20260509225059 59 212 0.0 0.0 0.00 0.00 0.00 76 1030.4
20260509224541 59 212 0.0 4.0 0.00 0.00 0.00 75 1030.5
20260509224022 58 127 0.0 4.0 0.00 0.00 0.00 76 1030.4
20260509223514 58 114 0.0 1.0 0.00 0.00 0.00 77 1030.4
20260509222955 58 209 0.0 1.0 0.00 0.00 0.00 78 1030.3
20260509221753 57 273 0.0 0.0 0.00 0.00 0.00 80 1030.2
20260509221250 57 273 0.0 0.0 0.00 0.00 0.00 81 1030.1
20260509220741 57 273 0.0 0.0 0.00 0.01 0.00 82 1030.1
20260509215609 57 33 0.0 0.0 0.00 0.01 0.00 84 1029.9
20260509215100 57 32 0.0 0.0 0.00 0.01 0.00 85 1029.8
20260509214609 57 32 0.0 0.0 0.00 0.01 0.00 85 1029.8
20260509214101 57 32 0.0 0.0 0.00 0.01 0.00 85 1029.7
20260509213542 56 32 0.0 0.0 0.00 0.01 0.00 85 1029.6
20260509213044 57 17 0.0 1.0 0.00 0.01 0.00 85 1029.6